Home   Weather   Lansing   Past weeks
Flag for USA

Past Weather in Lansing, Michigan, USA — Yesterday and Last 2 Weeks

Now
54 °F

Clear.


Feels Like: 52 °F
Forecast: 65 / 47 °F
Wind: 7 mph from Southeast

Location: Capital City Airport

Current Time: Oct 19, 2019 at 9:12:33 pm

Latest Report: Oct 19, 2019 at 7:53 pm


Visibility: 10 mi

Pressure: 29.83 "Hg

Humidity: 57%

Dew Point: 39 °F

Location of LansingLocation

Past Weather in Lansing — Graph

°F

Lansing Temperature Yesterday

Maximum temperature yesterday: 54 °F (at 3:53 pm)
Minimum temperature yesterday: 32 °F (at 6:53 am)
Average temperature yesterday: 43 °F

High & Low Weather Summary for the Past Weeks

 TemperatureHumidityPressure
High71 °F (Oct 10, 2:53 pm)94% (Oct 11, 5:53 pm)30.41 "Hg (Oct 11, 5:53 pm)
Low32 °F (Oct 15, 4:53 am)35% (Oct 7, 3:53 pm)29.59 "Hg (Oct 16, 9:43 am)
Average51 °F72%30.01 "Hg
* Reported Oct 4 7:53 pm — Oct 19 7:53 pm, Lansing. Weather by CustomWeather, © 2019

Note: Actual official high and low records may vary slightly from our data, if they occured in-between our weather recording intervals... More about our weather records

Advertising

Lansing Weather History for the Previous 24 Hours

Scroll right to see more
 ConditionsComfort  
Time TempWeatherWind HumidityBarometerVisibility
7:53 pm
Sat, Oct 19
54 °FClear.7 mph57%29.83 "Hg10 mi
6:53 pm55 °FClear.7 mph55%29.82 "Hg10 mi
5:53 pm57 °FSunny.8 mph53%29.83 "Hg10 mi
4:53 pm59 °FSunny.12 mph48%29.84 "Hg10 mi
3:53 pm59 °FSunny.10 mph48%29.85 "Hg10 mi
2:53 pm58 °FSunny.13 mph54%29.89 "Hg10 mi
1:53 pm60 °FSunny.15 mph49%29.90 "Hg10 mi
12:53 pm58 °FSunny.10 mph54%29.93 "Hg10 mi
11:53 am56 °FSunny.9 mph55%29.96 "Hg10 mi
10:53 am52 °FSunny.8 mph64%29.98 "Hg10 mi
9:53 am47 °FSunny.10 mph71%29.98 "Hg10 mi
8:53 am42 °FSunny.8 mph82%29.99 "Hg10 mi
7:53 am39 °FClear.6 mph86%30.00 "Hg10 mi
6:53 am40 °FClear.7 mph86%29.99 "Hg10 mi
5:53 am40 °FClear.7 mph83%29.99 "Hg10 mi
4:53 am40 °FClear.5 mph83%30.00 "Hg10 mi
3:53 am40 °FClear.7 mph83%30.01 "Hg10 mi
2:53 am40 °FClear.6 mph83%30.01 "Hg10 mi
1:53 am41 °FClear.6 mph80%30.00 "Hg10 mi
12:53 am41 °FClear.8 mph80%30.01 "Hg10 mi
11:53 pm
Fri, Oct 18
42 °FClear.7 mph76%30.02 "Hg10 mi
10:53 pm43 °FClear.5 mph74%30.03 "Hg10 mi
9:53 pm44 °FClear.7 mph71%30.03 "Hg10 mi
Weather by CustomWeather, © 2019

See weather overview